2024-173C (61229 NORAD) Tracking and Keplerian Element Data

This shows tracking and keplerian element data for the satellite.

Feedback or suggestion? Click here.




ElementValue
Catalog61229
Name2024-173C
Epoch Orbit284
Epoch Day286.85130016
Epoch Year2024
RAAN359.4584
Inclination97.4038
Eccentricity0.0011791
Argument of Perigee207.5813
Mean Anonmoly152.4801
Mean Motion15.25666489
Decay Rate0.00034526
L11 61229U 24173C 24286.85130016 .00034526 00000+0 13516-2 0 9990
L22 61229 97.4038 359.4584 0011791 207.5813 152.4801 15.25666489 2843



Live tracking and technical data element details for 2024-173C (NORAD 61229). 2024-173C can be tracked NOW for your location showing map with azimuth and elevation plus other details from your city location.







IsCatalogInMostPopularTable: catalog: 61229, numindb: 20
Update: records affected: 1



GetName: 61229 2024-173C

Hit Count: updated at: Wed, 04 Dec 2024 08:57:46 GMT